Location: Bruderhein
(53.8035°N, 112.9265°W)
Time: 09:55:49
(UTC+00:00)

deb Agena D - Pass Details

Date: 12 December 2023
Orbit: 760 x 888 km, 99.8° (Epoch: 04 March)

Event Time Altitude Azimuth Distance (km) Brightness Sun altitude
Rises 13:05:57 0° 136° (SE) 3,467 ? -21.2°
Reaches altitude 10° 13:08:27 10° 130° (SE) 2,519 ? -20.9°
Maximum altitude 13:13:41 43° 61° (ENE) 1,198 ? -20.1°
Drops below altitude 10° 13:18:47 10° 352° (N) 2,460 ? -19.4°
Enters shadow 13:20:08 - 348° (NNW) 2,961 ? -19.2°
